Location: Aldenham
(51.6667°N, 0.3500°W)
Time: 00:59:45
(UTC+00:00)

Vanguard 2 - Pass Details

Date: 25 February 2026
Orbit: 553 x 2896 km, 32.9° (Epoch: 7 March)

Event Time Altitude Azimuth Distance (km) Brightness Sun altitude
Exits shadow 03:46:04 14° 168° (SSE) 2,789 10.2 -29.6°
Drops below altitude 10° 03:48:32 10° 146° (SE) 2,808 10.5 -29.2°
Sets 03:52:09 0° 120° (ESE) 3,395 11.3 -28.7°
